Вернуться в каталог

STARLINK-32605

АктивенСвязьVLEO
NORAD 61921·PAYLOAD·🇺🇸 United States

Запущен Nov 11, 2024 с Cape Canaveral Space Force Station

Loading…

Ближайшие Пролёты (ближайшие 24 часа)

TLE

СвежийSource: CelesTrak SupGP

Эпоха: Sep 14, 2026, 21:17 UTC

1 61921C 24207K   26257.88729167 -.00007714  00000+0 -27946-3 0  2572
2 61921  43.0002 293.0721 0001524 271.7072 299.2401 15.27573581    14

Отслеживайте STARLINK-32605 в реальном времени с AllMySat

Download on the App Store